Waukegan, IL

2:14 AM CST on November 23, 2017 (GMT -0600)
Waukegan Regional

Weather History for KUGN - April, 2014

Change the Weather History Date:

Tuesday, April 1, 2014

  Actual Average Record
Temperature  
Mean Temperature 43 °F -  
Max Temperature 55 °F 50 °F 84 °F (2010)
Min Temperature 30 °F 31 °F 21 °F (2002)
Degree Days  
Heating Degree Days 22 25  
Month to date heating degree days 22 25  
Since 1 July heating degree days 7030 5895  
Cooling Degree Days 0 0  
Month to date cooling degree days 0 0  
Year to date cooling degree days 0 0  
Moisture  
Dew Point 25 °F    
Average Humidity 54    
Maximum Humidity 63    
Minimum Humidity 45    
Precipitation  
Precipitation 0.00 in 0.09 in 0.16 in (2007)
Month to date precipitation 0.00 0.09  
Year to date precipitation 2.78 5.46  
Sea Level Pressure  
Sea Level Pressure 29.85 in    
Wind  
Wind Speed 13 mph (WSW)    
Max Wind Speed 28 mph    
Max Gust Speed 38 mph    
Visibility 10 miles    
Events      
T = Trace of Precipitation, MM = Missing Value Source: NWS Daily Summary

Daily Weather History Graph

Daily Weather History Graph

Search for Another Location

Airport or City:

Trip Planner

Search our weather history database for the weather conditions in past years. The results will help you decide how hot, cold, wet, or windy it might be!

Date:

Astronomy

Apr. 01, 2014 Rise Set
Actual Time 6:33 AM CDT 7:17 PM CDT
Civil Twilight 6:05 AM CDT 7:45 PM CDT
Nautical Twilight 5:31 AM CDT 8:19 PM CDT
Astronomical Twilight 4:57 AM CDT 8:54 PM CDT
Moon 7:34 AM CDT (4/1) 9:42 PM CDT (4/1)
Length of Visible Light 13h 40m
Length of Day
12h 43m
Waxing Crescent, 5% of the Moon is Illuminated
Apr 1
Waxing Crescent
Apr 7
First Quarter
Apr 15
Full
Apr 22
Last Quarter
Apr 29
New

Hourly Weather History & Observations

Time (CDT) Temp. Windchill Dew Point Humidity Pressure Visibility Wind Dir Wind Speed Gust Speed Precip Events Conditions
12:52 AM 55.0 °F - 36.0 °F 49% 29.65 in 10.0 mi South 17.3 mph 27.6 mph N/A   Clear
1:52 AM 54.0 °F - 37.9 °F 55% 29.64 in 10.0 mi South 17.3 mph - N/A   Clear
2:52 AM 53.1 °F - 39.9 °F 61% 29.65 in 10.0 mi SW 13.8 mph 23.0 mph N/A   Partly Cloudy
3:52 AM 50.0 °F - 34.0 °F 54% 29.66 in 10.0 mi SW 15.0 mph 28.8 mph N/A   Overcast
4:52 AM 41.0 °F 34.7 °F 26.1 °F 55% 29.68 in 10.0 mi WSW 10.4 mph 19.6 mph N/A   Partly Cloudy
5:52 AM 36.0 °F 27.1 °F 23.0 °F 59% 29.71 in 10.0 mi WSW 13.8 mph 27.6 mph N/A   Partly Cloudy
6:52 AM 33.1 °F 22.6 °F 21.0 °F 61% 29.75 in 10.0 mi SW 16.1 mph 26.5 mph N/A   Overcast
7:52 AM 32.0 °F 21.2 °F 19.9 °F 61% 29.76 in 10.0 mi WSW 16.1 mph 27.6 mph N/A   Overcast
8:39 AM 30.0 °F 19.5 °F 18.0 °F 61% 29.77 in 10.0 mi WSW 13.8 mph 27.6 mph N/A   Overcast
8:49 AM 30.2 °F 20.2 °F 19.4 °F 64% 29.77 in 10.0 mi WSW 12.7 mph 24.2 mph N/A   Overcast
8:52 AM 30.9 °F 21.2 °F 19.0 °F 61% 29.79 in 10.0 mi WSW 12.7 mph 24.2 mph N/A   Overcast
9:52 AM 32.0 °F 18.4 °F 19.0 °F 59% 29.81 in 10.0 mi SW 26.5 mph 38.0 mph N/A   Overcast
10:52 AM 30.9 °F 19.4 °F 19.0 °F 61% 29.83 in 10.0 mi SW 17.3 mph 31.1 mph N/A   Overcast
11:52 AM 30.9 °F 19.8 °F 19.0 °F 61% 29.86 in 10.0 mi WSW 16.1 mph 28.8 mph N/A   Overcast
12:52 PM 33.1 °F 22.2 °F 19.9 °F 59% 29.87 in 10.0 mi SW 17.3 mph 29.9 mph N/A   Overcast
1:52 PM 36.0 °F 26.0 °F 21.0 °F 55% 29.88 in 10.0 mi SW 17.3 mph 32.2 mph N/A   Mostly Cloudy
2:09 PM 36.0 °F 26.3 °F 21.0 °F 55% 29.87 in 10.0 mi WSW 16.1 mph 31.1 mph N/A   Mostly Cloudy
2:52 PM 39.0 °F 29.6 °F 21.9 °F 50% 29.89 in 10.0 mi SW 18.4 mph 29.9 mph N/A   Scattered Clouds
3:52 PM 41.0 °F 33.5 °F 23.0 °F 49% 29.89 in 10.0 mi West 13.8 mph 26.5 mph N/A   Clear
4:52 PM 42.1 °F 35.7 °F 24.1 °F 49% 29.91 in 10.0 mi West 11.5 mph 21.9 mph N/A   Clear
5:52 PM 44.1 °F 37.4 °F 25.0 °F 47% 29.95 in 10.0 mi West 13.8 mph 24.2 mph N/A   Clear
6:52 PM 43.0 °F 37.7 °F 25.0 °F 49% 29.98 in 10.0 mi West 9.2 mph 18.4 mph N/A   Clear
7:52 PM 43.0 °F 39.5 °F 26.1 °F 51% 30.02 in 10.0 mi West 5.8 mph - N/A   Clear
8:52 PM 42.1 °F 37.7 °F 26.1 °F 53% 30.04 in 10.0 mi Variable 6.9 mph - N/A   Clear
9:52 PM 39.9 °F 37.8 °F 26.1 °F 58% 30.06 in 10.0 mi West 3.5 mph - N/A   Clear
10:52 PM 39.9 °F 37.8 °F 27.0 °F 60% 30.09 in 10.0 mi WSW 3.5 mph - N/A   Clear
11:52 PM 39.0 °F 34.8 °F 27.0 °F 62% 30.10 in 10.0 mi West 5.8 mph - N/A   Clear